Simultaneous Nadir Overpasses (SNOs) Predictions

Prediction of SNOs between GOES-16 and NOAA-19 Satellite Orbit:

Table of predicted SNOs for the next 14.0 days since TLE Epoch: 10/21/2023
Index Date Time (GOES-16) GOES-16 Lat,Lon NOAA-19 Lat,Lon Distance(km) Time Diff (sec)
1 10/23/2023 01:57:54 0.05, -75.21 -0.38, -77.02 207.25 80
2 10/24/2023 01:48:28 0.05, -75.22 0.31, -74.08 129.90 80
3 10/25/2023 01:36:22 0.05, -75.22 1.00, -71.13 467.24 80
4 10/26/2023 14:05:43 -0.05, -75.25 0.78, -78.81 406.17 80
5 10/27/2023 13:53:36 -0.05, -75.27 0.08, -75.87 68.26 80
6 10/28/2023 13:44:09 -0.05, -75.28 -0.57, -72.91 269.84 80
7 10/31/2023 02:04:04 0.04, -75.30 -0.51, -77.65 268.01 80
8 11/01/2023 01:49:17 0.04, -75.32 0.19, -74.70 70.37 80
9 11/02/2023 01:37:10 0.03, -75.33 0.84, -71.75 408.86 80
10 11/03/2023 14:09:10 -0.03, -75.38 0.89, -79.43 462.23 80
